Theta_e
306 306 306 306 306 306 306 306 305 305 305 305 303 304 307 307 307 307 305 306 307 311 314 312 311 311 311 310 310 308 309 309 308 308 307 306 306 306 307 306 306 306 306 306 307 307 309 311 313 312 310 310 310 310 309 308 309 310 310 311 313 316 319 318 317 321 322 321 322 322 322 324 325 324 322 322 321 319 319 323 324 318 314 318 318 313 320
306 306 306 306 306 307 307 306 306 305 305 306 304 305 306 305 307 308 307 306 307 310 311 310 311 311 311 311 310 308 308 308 308 307 307 307 306 306 306 306 306 307 307 307 308 308 309 311 313 312 310 310 310 310 309 309 308 308 309 312 313 315 318 317 319 329 331 321 320 327 329 325 320 322 324 323 323 323 323 326 324 318 314 315 315 313 319
306 306 307 307 307 307 307 306 306 305 305 306 305 305 305 305 307 308 306 305 306 308 308 308 309 310 311 312 310 309 309 308 307 308 307 307 307 306 306 306 307 307 308 308 307 308 309 309 311 313 310 309 309 309 309 308 307 309 313 314 312 313 316 316 319 327 331 324 323 326 325 320 317 321 323 323 324 321 320 322 317 316 319 317 313 313 320
306 306 307 307 307 307 307 306 306 305 305 306 305 305 306 308 309 308 306 305 305 306 305 306 307 309 310 312 311 309 309 309 308 308 307 307 307 307 307 307 307 308 308 308 307 307 308 307 309 312 311 309 309 309 309 308 308 311 314 314 311 313 317 316 318 321 322 321 320 318 317 316 316 319 320 320 322 322 321 320 315 321 324 318 316 319 319
306 307 307 307 307 307 307 306 306 305 306 306 305 306 307 307 308 307 307 307 306 305 305 305 306 308 308 311 312 309 309 309 309 309 308 307 307 308 308 308 308 309 308 308 308 309 309 308 308 310 310 309 308 309 309 308 310 312 311 310 311 313 314 314 316 317 315 316 316 314 314 315 315 316 317 318 323 324 322 316 318 328 323 314 326 334 320
307 307 307 307 307 307 307 306 306 306 307 306 305 308 308 307 307 306 306 308 308 306 306 305 306 307 309 311 311 309 309 309 310 309 308 307 308 309 310 309 308 309 308 308 309 309 309 309 308 309 310 309 308 309 309 308 310 309 308 307 309 312 313 311 312 314 313 313 313 312 313 314 315 317 319 320 323 325 322 318 324 331 319 315 337 347 326
307 307 307 307 307 307 307 307 306 307 307 306 305 308 309 307 307 306 305 306 307 305 305 306 306 307 309 311 311 309 309 310 309 308 308 308 309 308 310 310 308 309 309 308 309 309 309 310 310 309 309 308 308 311 312 311 310 308 307 308 308 310 314 313 311 312 312 311 311 312 314 316 316 319 321 323 325 327 325 324 327 331 326 327 343 347 334
307 307 307 307 307 307 307 307 307 307 307 306 306 307 308 307 308 307 306 306 305 305 305 306 307 308 309 312 312 310 310 311 310 309 309 310 310 309 310 310 309 308 309 309 309 309 309 310 310 309 309 308 308 312 315 314 311 308 307 308 308 310 314 313 311 312 312 311 313 314 314 315 317 320 325 329 330 328 323 324 327 327 329 334 339 338 336
307 307 307 307 307 307 307 307 307 307 307 307 306 306 306 306 306 306 306 306 306 306 306 306 307 309 310 311 311 310 309 310 310 310 310 309 310 310 310 310 309 309 309 309 310 310 310 310 309 308 308 307 308 310 312 311 310 309 309 308 308 311 314 313 312 313 313 312 313 313 313 315 321 325 328 333 335 331 326 332 337 332 329 333 334 331 334
307 307 307 307 307 307 307 307 307 307 307 307 307 306 306 306 306 306 306 307 306 306 306 305 307 309 309 308 308 308 308 309 309 310 310 309 310 310 309 309 309 310 309 309 310 310 309 308 307 307 307 307 306 307 308 308 309 309 309 309 309 310 312 313 313 315 315 313 311 313 317 323 331 331 327 331 338 340 342 345 345 342 340 338 332 331 340
307 307 307 307 307 307 307 307 307 307 308 308 307 307 307 307 307 306 306 307 306 305 305 305 306 307 307 306 306 306 307 308 310 310 310 309 309 309 309 310 310 310 311 310 309 308 307 307 307 306 306 306 306 307 307 307 308 309 309 310 309 310 311 312 313 315 316 312 311 320 331 334 336 334 326 326 334 340 345 347 344 342 345 343 339 343 348
307 307 307 307 307 307 307 308 308 307 307 308 308 308 307 307 307 307 307 307 307 305 305 306 306 305 305 305 305 306 306 308 309 309 309 309 309 308 308 309 310 310 311 309 308 307 307 307 307 307 307 307 307 307 308 308 308 308 308 309 309 310 311 311 312 314 316 314 318 333 346 340 332 331 326 325 328 332 338 345 343 341 342 343 345 349 348
306 306 307 307 307 307 307 307 307 307 307 308 308 308 308 307 306 307 307 307 307 306 305 305 305 305 305 305 305 307 307 307 308 308 309 309 309 308 308 309 310 309 308 308 308 308 309 311 311 310 309 308 308 308 308 308 308 308 308 308 309 310 310 311 313 315 317 318 321 331 339 333 328 330 327 325 327 328 333 344 345 341 340 342 345 347 346
306 306 307 307 307 307 307 307 307 307 307 308 308 308 308 308 307 306 307 307 307 306 306 306 306 306 306 306 307 307 307 307 308 309 309 309 309 308 308 309 309 308 307 308 310 311 311 312 313 312 311 311 311 312 311 310 309 308 308 308 308 309 309 310 312 315 318 320 318 321 330 335 335 334 329 324 327 328 330 339 345 342 339 340 344 347 347
307 307 307 307 307 307 307 308 308 308 308 308 308 308 308 308 308 307 306 307 307 306 306 306 307 307 306 306 306 307 307 308 310 310 309 309 309 308 308 309 308 308 308 310 313 314 312 311 312 312 313 313 312 312 312 312 313 311 309 309 309 309 310 310 312 317 318 317 317 322 334 344 340 332 326 323 327 327 326 336 346 343 337 337 342 346 348
307 307 307 307 307 308 308 309 309 309 308 308 308 308 308 308 308 307 306 306 307 308 306 305 305 306 306 306 306 306 307 309 310 310 310 310 310 309 309 308 308 309 311 313 314 313 312 312 311 312 313 312 311 312 313 314 315 315 313 312 309 309 310 309 311 314 314 313 316 321 332 339 334 328 326 327 329 327 329 340 350 343 334 335 339 344 347
307 307 307 308 308 308 309 309 309 309 309 308 309 309 308 308 308 308 307 306 307 308 306 305 305 306 307 307 308 308 309 310 310 310 310 310 310 310 310 309 309 310 311 313 315 313 312 313 312 312 313 311 310 313 314 314 316 317 316 314 311 310 311 309 310 313 313 314 316 320 329 335 329 326 329 330 328 329 337 349 352 340 332 333 337 341 345
307 307 308 308 308 309 309 309 309 309 309 309 309 309 309 308 308 308 307 307 308 308 306 306 306 306 307 307 308 309 309 309 310 311 310 310 311 311 311 309 310 311 311 312 313 313 312 312 311 312 313 311 310 313 314 314 316 317 317 317 314 312 313 313 312 313 315 317 316 317 327 333 328 326 331 330 330 336 345 350 344 335 331 333 333 337 341
307 308 308 308 308 308 308 308 309 309 309 309 309 309 309 309 309 308 308 308 308 308 307 306 306 306 307 307 308 308 308 308 310 311 310 311 311 311 310 309 310 312 312 312 313 312 312 313 312 311 313 313 312 313 313 314 316 315 316 319 318 316 316 315 313 313 315 316 313 317 328 331 327 329 332 331 334 342 342 341 337 332 331 332 332 334 336
308 308 308 308 308 308 308 308 309 309 309 309 309 309 310 309 309 309 308 308 308 308 308 307 307 307 307 307 308 308 308 309 310 311 311 311 311 310 310 311 311 312 312 313 313 312 312 313 313 312 313 314 314 313 313 314 314 314 315 318 319 319 319 317 315 316 316 314 316 323 330 330 328 331 332 330 332 334 332 333 334 331 329 330 330 331 334
308 308 308 308 308 308 308 308 308 309 309 309 309 309 309 310 309 309 309 308 309 309 309 308 308 308 308 308 308 308 308 309 310 311 310 311 311 311 311 311 310 310 312 312 312 312 311 312 313 313 313 313 313 313 313 313 314 314 314 317 318 319 319 318 318 319 318 319 323 325 326 328 330 332 331 328 327 327 328 330 331 330 329 329 329 329 332
308 308 308 308 308 308 308 309 308 308 309 309 309 309 309 310 309 309 309 309 308 309 309 308 308 308 308 308 308 308 308 309 309 310 310 310 311 312 312 311 310 311 312 313 313 312 312 313 313 312 312 312 312 312 312 313 315 315 315 317 317 317 317 317 317 317 316 319 322 322 324 328 329 328 328 326 324 325 326 327 328 328 328 328 328 327 329
308 308 308 308 309 308 308 308 308 308 308 308 309 309 309 309 309 309 309 309 308 309 308 308 309 309 309 310 310 310 310 309 309 310 310 310 311 311 311 311 310 311 312 313 314 313 313 314 314 313 312 313 313 312 311 313 315 316 315 315 315 314 314 315 316 316 315 317 318 316 321 327 326 325 326 326 324 324 326 326 327 326 325 325 326 326 327
308 308 308 308 308 308 308 308 309 309 308 308 308 309 308 309 309 309 309 309 310 310 310 309 310 311 311 311 310 310 310 310 310 310 310 310 310 311 312 311 310 311 313 314 313 312 312 313 313 312 312 312 312 312 312 313 314 314 313 313 313 312 312 313 314 314 315 318 317 313 315 323 325 324 324 322 321 322 324 325 326 325 323 324 325 325 326
308 308 308 308 309 308 308 308 308 308 308 308 308 308 308 308 308 308 309 310 310 311 312 312 312 311 311 311 310 311 311 311 311 311 310 309 310 311 312 311 310 310 311 312 311 310 311 312 312 312 312 312 312 312 313 313 313 312 312 312 312 312 312 312 313 314 314 315 314 312 315 322 325 325 325 323 321 321 322 323 324 323 323 324 325 326 328
308 309 309 309 309 308 308 308 308 308 308 307 308 308 308 308 308 308 309 309 310 311 312 312 312 310 310 311 311 311 311 311 311 311 311 310 310 310 310 311 310 310 310 311 311 312 312 311 312 312 311 311 311 312 312 312 311 311 311 311 311 312 312 311 312 312 311 311 312 314 316 319 320 322 323 323 323 322 321 321 322 322 322 324 326 327 328
310 310 310 310 310 309 308 308 307 308 308 307 308 308 308 308 308 308 308 310 311 312 313 312 312 311 310 311 311 311 311 311 311 312 312 311 311 310 310 311 311 312 312 312 313 313 312 310 310 311 311 311 311 311 311 311 311 311 311 310 310 311 311 311 311 312 312 312 312 314 314 313 314 318 319 319 321 322 320 319 320 321 321 324 326 327 328
312 312 312 311 311 310 309 309 309 309 309 308 308 308 308 309 309 308 308 309 310 312 313 312 311 311 312 312 311 311 311 312 311 312 314 313 312 311 311 311 312 313 314 314 313 312 310 309 309 310 310 310 311 310 311 311 311 311 311 310 310 310 311 310 311 311 312 311 311 312 312 310 311 316 318 316 319 322 320 318 320 320 320 321 324 326 329
313 313 312 312 312 311 311 311 312 312 311 311 310 310 310 311 310 310 310 310 310 311 312 311 313 314 313 312 311 311 312 314 313 313 314 314 312 312 312 312 313 314 314 314 313 311 309 309 310 310 309 310 311 311 311 311 312 311 311 310 310 310 310 309 310 310 310 310 310 310 310 310 311 314 316 316 319 322 321 319 319 319 319 320 320 323 327
314 313 312 313 313 312 312 313 313 313 313 312 311 311 314 315 313 311 311 311 311 311 311 311 314 314 312 311 311 311 313 314 314 313 314 314 313 313 313 314 314 313 314 314 313 311 310 310 310 310 310 309 310 310 311 312 311 311 310 309 309 309 308 308 308 308 309 309 309 309 310 310 310 311 313 315 319 322 322 321 320 320 320 319 318 320 323
315 313 313 314 314 313 312 313 313 313 313 312 313 314 317 316 313 311 312 311 312 311 310 310 312 312 312 312 312 312 313 314 315 314 314 314 314 313 313 314 314 313 313 314 313 311 310 310 309 310 310 309 309 309 310 310 310 310 309 308 308 307 308 308 308 308 308 308 308 309 309 309 309 310 311 314 318 320 320 320 319 319 320 318 317 318 320
316 314 313 314 314 313 313 313 313 313 313 313 313 314 314 313 311 311 311 311 311 310 309 311 313 314 315 315 314 312 313 315 315 316 316 315 315 314 313 314 315 314 313 313 312 311 311 311 310 310 309 309 309 308 308 309 310 310 308 308 308 308 309 309 309 309 308 308 309 309 310 310 310 309 310 313 316 317 317 318 316 315 317 317 316 317 317
318 316 314 314 314 314 314 313 313 313 313 313 313 313 312 311 311 310 310 310 310 309 309 311 314 316 317 318 317 315 316 318 319 318 318 316 315 316 315 314 314 315 314 313 312 312 311 311 311 311 309 307 307 307 307 308 308 308 308 309 310 310 311 311 313 312 311 310 310 311 311 311 310 309 310 313 315 314 314 315 314 314 316 318 319 319 319
320 319 318 316 314 314 314 313 313 313 312 312 313 314 314 312 310 309 309 309 310 310 309 311 315 317 317 319 321 319 318 319 321 321 320 317 316 316 317 316 315 316 315 313 313 312 312 311 311 310 309 306 304 305 307 307 307 308 309 310 311 311 311 312 314 315 314 313 312 311 311 311 310 310 311 313 313 313 312 313 313 315 317 320 321 320 319
321 320 320 317 314 313 313 313 312 312 312 312 314 315 314 313 310 308 309 310 311 313 313 312 314 316 319 322 325 322 318 319 322 321 319 318 316 316 316 317 318 317 315 313 314 314 313 311 311 310 309 307 307 308 309 308 308 309 310 310 310 310 311 312 312 313 314 315 314 312 310 310 309 309 310 311 311 312 312 312 314 315 317 321 322 320 319
321 320 320 317 314 312 312 313 313 313 314 315 316 314 312 311 310 309 310 310 310 313 315 314 314 316 319 322 323 320 318 320 322 320 319 319 319 317 317 318 319 317 314 314 316 315 313 312 312 310 309 309 310 311 310 309 309 309 309 310 310 310 310 310 310 311 313 315 315 313 311 310 309 309 310 310 310 311 313 314 317 318 319 321 322 321 322
319 320 319 316 314 315 316 316 315 316 316 316 314 311 310 310 310 310 311 311 311 311 312 314 318 320 319 320 321 320 319 321 321 321 321 321 320 319 318 319 319 317 316 317 318 315 313 313 311 310 310 311 311 311 310 309 309 309 309 310 310 309 309 309 310 311 313 315 315 314 312 310 309 309 310 310 311 313 315 317 319 320 320 320 320 322 325
319 320 318 316 319 325 326 321 317 317 316 314 312 313 312 310 312 314 313 312 313 313 310 313 320 321 318 319 322 321 319 320 321 322 323 321 319 318 319 320 319 317 317 318 316 314 314 314 311 310 311 312 312 311 310 310 309 309 309 309 309 309 309 309 309 311 314 317 316 316 314 311 310 310 311 311 313 315 317 319 320 321 320 320 322 324 325
319 320 318 319 325 329 326 320 316 315 314 312 314 317 316 313 316 322 319 314 315 315 313 315 322 323 320 322 324 320 318 320 323 324 323 322 320 320 320 320 318 317 318 318 315 314 316 315 312 311 312 313 312 312 311 310 309 309 309 309 309 310 309 309 310 311 314 317 317 316 314 313 311 310 311 312 314 317 319 320 321 321 321 321 321 322 322
319 320 321 324 325 322 318 315 313 313 314 314 316 319 319 318 322 327 323 320 321 321 318 319 324 323 320 322 323 321 320 321 323 324 324 323 321 320 320 319 318 319 320 319 317 316 317 316 313 312 313 313 313 312 312 311 310 309 309 309 309 309 309 309 309 310 312 315 315 314 313 313 313 312 312 314 316 318 319 318 318 319 319 320 319 319 319
319 320 322 323 320 316 314 313 312 313 316 318 319 321 322 321 323 326 325 325 326 325 321 321 324 324 322 322 322 322 322 322 321 322 324 324 320 318 318 318 318 320 321 319 317 317 316 315 314 313 313 314 313 312 312 311 310 309 309 309 309 309 309 309 309 309 310 312 313 313 313 313 312 312 313 313 314 314 315 314 315 315 316 316 316 316 316
318 318 318 318 316 314 314 314 314 316 318 320 321 323 324 323 324 327 326 324 322 323 324 323 323 324 323 322 322 322 322 321 320 321 323 324 321 320 320 321 319 318 317 317 317 317 315 314 314 314 313 313 313 313 312 312 311 310 310 309 309 309 309 309 309 309 309 310 311 312 313 313 312 312 312 311 311 312 312 312 312 312 313 313 314 314 314
319 319 318 317 317 318 318 316 316 319 323 324 323 322 322 324 324 324 325 324 323 325 326 324 321 322 322 320 321 322 320 319 321 324 326 324 320 317 319 320 318 314 314 316 317 317 314 313 314 314 313 313 313 312 312 312 312 311 311 309 308 308 308 308 309 309 308 308 309 310 311 312 312 312 312 311 311 311 311 311 311 311 311 311 312 312 313
322 321 320 320 321 321 319 317 316 316 319 323 323 320 320 322 321 319 321 324 324 325 325 322 321 323 325 324 323 323 321 320 321 321 322 323 320 316 317 319 317 315 317 318 317 315 313 312 314 314 313 313 313 312 312 312 312 312 311 310 309 308 308 308 309 309 309 308 308 308 309 310 311 311 312 312 312 312 312 311 311 311 310 310 310 311 311
324 324 323 322 320 318 316 317 318 316 316 318 320 318 318 319 319 317 319 321 320 319 319 318 319 324 327 325 321 320 323 327 324 318 316 322 322 317 316 317 317 317 317 317 316 315 313 312 313 313 313 313 313 312 312 312 311 312 312 311 310 309 308 308 308 309 309 309 308 307 307 308 309 310 310 311 311 312 312 312 312 312 311 310 310 310 310
322 323 323 321 317 315 316 317 318 317 316 317 320 320 318 317 317 317 318 318 318 317 316 317 321 324 325 324 321 320 323 327 324 317 317 322 320 315 315 317 318 317 316 315 315 314 313 312 313 314 313 313 313 312 312 311 311 311 311 311 310 310 309 308 308 308 309 309 308 307 307 307 308 308 309 309 309 310 310 311 312 312 312 311 311 311 310
317 319 322 320 316 317 318 317 316 316 317 318 320 320 317 316 316 318 316 315 315 317 317 319 324 324 321 320 322 321 319 320 319 317 317 318 317 316 317 318 316 315 315 314 313 312 312 312 314 314 313 313 313 313 312 311 310 310 310 311 311 311 310 310 309 309 308 309 308 308 307 307 307 307 308 308 308 309 309 309 310 311 311 312 312 311 310
317 317 319 320 318 317 316 317 319 320 320 318 318 319 318 317 316 317 316 315 316 318 317 318 323 325 322 320 322 321 318 318 319 318 316 316 317 317 317 316 315 314 313 313 312 312 313 314 314 314 313 312 313 312 312 312 311 310 310 311 311 311 310 310 310 310 309 308 308 308 308 307 306 306 307 308 308 308 308 308 308 309 309 310 310 311 311
316 315 317 321 323 319 316 318 321 322 320 319 319 319 319 319 318 316 316 316 318 318 317 317 320 323 321 319 321 320 317 317 317 317 316 317 317 316 315 316 315 314 312 312 313 314 314 315 314 313 312 312 311 311 311 312 312 311 311 311 311 311 310 309 309 310 309 309 308 308 308 307 307 306 307 308 308 307 307 307 307 308 308 308 309 309 310
312 314 318 321 323 320 317 318 320 320 320 321 322 320 318 318 319 317 315 315 319 321 320 320 321 321 319 318 320 319 317 317 318 318 317 316 316 315 315 315 314 313 312 312 313 314 315 314 313 312 312 311 310 309 310 311 312 312 311 310 310 310 309 309 308 308 308 308 308 308 308 307 307 307 307 307 307 307 307 306 306 306 306 307 307 307 307
315 316 318 319 320 322 322 320 321 320 317 317 319 318 317 318 319 316 313 316 321 321 318 317 320 320 318 318 318 317 316 317 318 317 316 315 315 315 315 314 313 312 312 313 313 313 313 312 311 311 311 311 309 308 307 308 309 310 310 309 309 309 309 309 308 308 307 307 307 307 307 307 306 306 306 306 306 306 306 306 306 305 305 305 305 306 306
318 317 318 318 321 326 326 321 319 320 320 320 321 320 316 316 316 315 315 318 322 318 315 317 321 320 316 315 316 316 316 316 315 315 315 315 315 314 314 314 313 314 314 313 313 313 312 310 310 311 310 308 306 305 304 304 305 307 308 309 309 308 308 308 308 307 306 306 305 305 306 306 306 305 305 305 305 306 307 306 305 304 304 304 304 304 305
Wind_Speed
27 27 27 27 27 26 26 27 26 28 29 27 26 18 5 1 4 11 24 31 19 6 5 4 3 3 3 4 4 4 3 4 6 7 7 6 4 4 3 3 3 3 2 3 3 4 2 2 1 1 2 3 4 6 10 12 11 8 5 5 6 6 3 4 7 7 9 15 13 11 11 6 4 5 4 6 8 8 6 5 5 4 5 4 3 7 9
26 26 27 26 26 25 25 25 25 24 24 24 20 10 2 2 3 7 18 27 17 8 3 4 3 4 5 4 5 6 4 6 8 7 6 6 4 4 4 4 3 3 3 3 3 4 2 2 2 1 0 1 3 6 9 11 9 6 6 6 5 4 2 3 5 5 6 7 4 3 4 4 3 5 5 7 10 11 6 2 3 5 8 8 6 9 9
26 26 26 25 25 24 23 23 23 22 21 22 17 5 2 4 2 4 10 19 16 7 2 2 2 4 5 4 4 6 5 6 9 7 4 6 6 3 2 3 3 3 4 3 3 3 3 1 1 1 1 1 1 4 7 9 9 8 11 11 6 3 2 1 2 2 4 5 3 3 5 6 7 7 8 10 9 10 8 4 3 7 7 8 8 10 8
25 25 25 24 23 23 22 21 21 20 19 20 17 6 2 2 2 2 5 8 7 3 2 4 2 3 5 4 3 6 5 4 6 5 4 6 8 4 2 4 5 5 6 5 4 3 3 3 1 2 1 1 1 1 5 7 9 9 13 14 8 2 2 2 4 5 6 6 8 9 8 8 10 12 14 15 13 11 7 6 7 6 5 6 9 7 7
24 23 23 23 21 21 21 19 19 18 17 19 15 5 1 1 1 2 3 3 4 3 3 5 4 4 4 3 2 5 6 4 4 3 3 6 7 4 2 6 7 5 6 4 3 3 3 2 2 2 2 2 2 2 3 5 8 9 12 13 7 2 3 4 7 9 9 10 14 16 13 11 13 14 17 18 16 11 8 10 9 7 6 7 7 4 7
23 22 21 21 20 20 19 17 17 17 15 16 12 2 0 1 1 1 1 1 3 2 3 6 6 6 6 2 2 5 6 6 5 3 3 5 5 3 3 6 7 6 5 3 2 4 4 2 2 3 2 3 4 0 1 3 6 8 8 8 5 2 3 6 7 9 12 14 16 16 13 12 13 15 16 19 18 13 11 12 9 10 9 9 6 7 10
21 20 19 19 19 19 17 16 16 15 12 13 9 1 0 1 1 1 1 1 2 3 6 7 6 6 6 3 2 3 5 5 4 2 3 5 4 3 2 6 8 8 6 3 2 3 3 3 2 2 3 4 4 1 0 1 3 4 5 6 5 3 3 4 6 9 15 16 14 12 10 9 12 15 16 17 18 16 13 11 9 11 9 7 7 10 12
20 18 17 18 17 17 17 15 14 13 11 9 4 1 0 1 1 1 1 1 2 4 4 5 4 4 4 3 2 2 4 5 4 2 1 3 3 2 2 7 9 9 7 4 4 4 3 4 4 3 4 5 3 1 1 1 2 3 4 4 5 4 2 4 5 7 13 13 8 8 9 10 12 14 12 13 13 13 12 9 8 8 6 4 5 8 11
20 18 17 17 16 16 16 15 13 12 10 6 2 1 1 0 1 0 0 2 3 2 3 3 3 3 2 2 3 3 5 5 4 4 3 4 3 3 5 9 8 7 7 6 7 6 5 6 8 7 6 6 5 3 3 5 3 3 2 2 4 3 2 3 4 4 8 8 8 13 16 12 10 8 11 15 9 3 5 3 1 2 5 6 5 5 7
19 17 16 16 16 15 15 14 12 11 10 5 1 1 1 1 0 1 1 2 2 2 3 2 1 1 2 4 5 4 6 5 3 4 2 3 4 4 6 8 6 6 8 7 7 7 7 9 10 9 8 8 8 7 7 7 6 4 3 3 3 4 3 2 2 3 6 6 11 16 13 8 6 3 9 14 11 8 7 9 11 7 1 5 5 6 5
18 17 15 16 15 14 14 13 11 9 9 6 3 3 3 3 1 1 1 2 1 1 2 2 1 2 4 6 6 5 8 7 2 1 2 4 6 7 8 8 5 4 6 7 6 7 9 10 10 9 9 10 11 11 11 11 10 8 5 3 3 5 4 2 0 2 5 9 13 12 2 2 4 1 8 12 11 11 11 9 11 11 6 2 4 5 7
18 17 16 15 15 14 14 13 11 8 8 9 7 6 8 6 3 2 1 2 1 1 1 2 3 5 6 7 7 7 8 7 5 5 5 6 8 9 7 5 3 3 6 7 7 7 8 9 9 9 9 11 13 13 14 14 11 9 8 7 5 5 4 2 2 2 4 8 9 3 5 2 5 1 7 10 8 7 6 6 11 15 13 11 8 8 10
17 16 16 15 14 14 14 12 10 8 8 10 8 9 11 9 5 2 1 2 2 2 3 4 6 7 8 8 8 7 6 7 8 7 6 6 7 8 6 3 3 5 8 8 8 6 6 6 6 6 7 8 9 10 11 12 12 10 10 10 8 6 4 3 2 2 3 3 4 1 4 7 9 4 6 11 9 10 9 7 13 18 15 13 12 12 12
16 15 15 15 14 13 12 11 10 9 9 10 10 10 11 11 7 3 2 2 2 2 3 4 5 6 6 6 5 5 6 7 7 5 4 4 6 7 5 4 7 9 7 6 5 3 2 3 3 4 5 3 3 3 3 5 9 12 12 12 9 7 5 3 2 3 2 2 3 3 5 8 5 1 6 9 7 9 9 4 8 14 13 12 12 12 13
16 15 15 15 13 12 11 11 11 11 9 9 10 11 11 12 10 5 3 2 2 2 3 4 3 2 3 4 3 4 5 5 4 3 4 3 4 5 4 6 11 11 5 2 2 1 1 1 2 3 3 2 2 2 2 2 5 9 12 13 10 8 7 3 2 3 1 2 3 3 3 3 1 3 10 9 6 7 8 4 2 11 14 14 13 12 13
16 16 15 14 13 12 12 12 12 12 10 9 10 12 11 11 11 9 4 2 1 2 2 4 5 3 3 4 5 5 4 3 3 4 4 2 3 5 5 7 11 9 3 1 1 1 1 1 1 2 2 2 3 3 3 3 3 4 6 11 14 11 7 5 4 3 2 2 2 2 3 4 4 11 16 14 9 8 6 2 3 10 16 16 14 13 13
16 16 15 15 14 13 14 13 12 12 11 9 10 12 12 10 10 11 5 2 2 2 2 4 5 2 2 4 4 3 2 2 2 3 3 2 3 5 6 6 7 5 2 2 2 2 2 1 1 2 2 2 4 5 4 4 3 4 4 4 11 10 6 5 5 4 4 4 3 2 3 4 7 13 17 17 15 10 2 3 4 10 15 16 15 14 14
16 16 15 15 14 14 14 13 12 11 12 10 9 12 13 12 10 10 7 2 1 3 4 6 7 5 4 3 3 2 2 3 2 2 3 3 2 3 4 4 4 4 3 3 2 2 2 2 1 1 2 2 3 4 4 4 3 3 4 2 5 5 3 4 5 4 5 5 3 3 3 2 8 14 16 18 14 5 3 4 4 9 13 13 13 14 14
16 16 15 15 14 14 13 13 12 11 10 10 9 10 11 10 10 10 7 2 1 4 3 3 6 6 5 3 3 3 3 4 3 2 4 3 1 3 5 3 2 3 2 2 1 1 2 2 1 1 2 2 2 3 3 4 3 3 3 2 2 4 2 3 4 4 4 4 3 4 3 1 8 13 14 12 7 2 3 4 5 8 11 11 12 13 13
16 15 15 14 14 13 12 12 12 11 10 9 8 8 9 9 8 10 10 5 2 4 7 8 10 10 8 6 6 6 4 4 3 2 4 3 1 4 5 1 1 3 2 2 2 1 0 1 2 1 1 2 2 3 3 4 3 3 4 3 1 2 1 2 3 2 2 3 2 2 2 3 11 13 10 7 7 3 4 6 7 8 10 11 10 10 11
16 15 15 14 13 12 11 11 11 10 10 9 8 8 9 9 8 9 12 10 4 2 4 7 10 13 12 10 12 11 8 7 6 3 3 3 0 1 2 1 1 2 2 1 0 1 1 1 2 1 1 2 2 2 5 5 2 2 4 3 2 1 0 1 2 2 1 1 0 1 2 4 8 8 4 6 6 4 5 7 7 8 10 10 9 10 11
16 15 14 14 13 12 12 11 10 10 9 9 8 7 7 7 7 7 10 14 11 7 9 10 12 17 21 20 21 20 18 18 17 11 5 3 1 2 3 2 2 2 2 1 1 1 1 1 1 1 2 2 1 2 4 4 1 3 4 2 2 3 3 2 3 3 2 3 3 2 2 3 5 5 3 6 7 7 8 9 8 8 9 9 9 11 12
16 15 14 14 13 12 11 10 9 9 9 8 8 8 7 8 7 6 8 11 11 11 16 19 18 19 21 21 20 18 18 22 23 20 13 7 3 3 4 2 2 2 2 1 2 1 1 2 1 1 2 2 2 3 3 2 1 3 4 2 2 4 4 3 3 4 5 5 3 3 3 2 3 4 4 6 8 8 8 8 7 8 10 10 10 11 11
16 16 15 14 13 11 10 9 9 9 9 8 8 8 8 9 8 6 6 6 4 5 8 9 7 8 10 12 11 9 11 16 18 19 18 14 6 1 2 4 3 2 2 3 3 1 1 1 1 1 2 2 2 2 3 2 1 3 4 3 2 4 5 5 5 6 5 2 3 8 6 1 3 3 4 6 8 6 4 5 6 6 8 10 11 12 12
17 16 15 13 12 10 8 8 8 9 8 7 7 8 8 9 8 6 5 4 3 2 3 3 4 7 9 12 11 10 11 12 11 12 17 20 15 7 4 4 6 3 2 2 2 2 0 2 1 1 2 3 2 1 2 2 2 4 4 3 2 4 7 6 5 6 6 5 7 11 8 2 5 3 1 3 6 5 3 3 4 5 7 9 11 11 12
17 16 14 12 10 8 7 6 6 7 7 7 7 8 9 9 7 5 6 5 3 2 2 3 4 6 9 12 11 9 8 8 8 9 15 22 24 20 12 5 3 3 2 1 2 1 1 2 1 2 2 1 0 1 2 2 2 3 4 4 4 4 5 5 5 7 8 7 6 7 5 2 4 4 2 1 4 5 3 3 4 5 7 8 10 10 10
17 15 12 10 8 7 5 4 3 4 4 5 6 8 9 9 8 8 8 6 2 1 2 3 4 8 11 11 11 12 9 7 8 7 10 17 23 24 16 7 3 3 2 2 1 1 1 1 2 2 2 2 2 1 2 2 2 3 4 3 3 3 4 4 4 5 6 5 3 4 4 5 3 3 4 3 3 5 4 2 3 4 4 5 7 9 8
16 12 9 8 6 5 4 2 1 2 3 3 4 5 7 7 7 9 11 9 4 2 2 3 5 9 10 8 10 13 12 4 5 4 5 9 15 17 13 7 3 2 2 1 1 1 1 2 3 2 2 2 3 2 2 1 1 2 3 2 1 2 4 4 4 6 9 10 8 6 5 8 8 4 3 5 3 3 4 3 2 3 3 3 4 6 6
14 10 7 5 4 3 2 2 3 4 5 4 2 3 5 5 6 7 9 10 8 4 2 3 5 5 5 8 11 12 12 8 3 3 5 2 4 8 8 5 3 3 2 1 1 1 2 2 2 2 2 2 3 3 2 1 2 3 3 2 2 4 6 7 8 11 14 14 11 8 9 11 9 5 3 4 4 1 3 4 2 2 4 4 5 6 5
12 8 5 3 2 2 2 3 3 4 4 3 1 2 3 2 4 6 6 8 9 5 1 2 3 3 3 6 7 7 10 10 8 8 9 8 5 4 4 3 2 1 1 1 1 1 1 1 1 1 1 2 2 3 2 2 2 3 3 5 8 10 11 11 11 13 15 14 10 9 12 14 11 9 6 4 3 3 1 4 4 1 1 4 6 7 7
11 8 5 2 0 1 2 3 3 2 2 2 1 1 2 2 1 2 3 5 7 4 0 1 3 3 4 4 3 4 8 7 5 6 6 5 5 5 4 2 1 1 1 1 1 1 0 1 1 1 1 2 2 1 2 3 3 4 7 10 13 13 13 13 12 13 15 15 12 11 14 14 12 9 7 4 3 3 3 3 3 3 3 3 3 5 7
10 7 5 4 3 2 3 4 4 3 3 3 2 2 2 3 3 2 1 4 6 3 0 1 2 2 3 3 2 2 3 3 2 2 3 2 1 2 3 3 1 1 0 1 0 1 1 1 2 1 1 2 2 1 2 2 3 7 13 16 14 12 12 13 12 12 13 12 10 11 13 13 12 10 8 5 3 3 2 2 3 3 3 3 3 2 6
8 7 5 5 5 4 4 4 5 4 5 6 7 8 7 5 3 2 3 4 4 3 1 1 1 2 3 3 3 3 2 2 1 1 2 2 1 0 1 1 0 1 2 1 1 1 1 1 1 1 0 1 1 0 1 2 5 11 15 15 13 12 13 13 11 9 9 10 9 10 12 12 10 9 9 8 6 4 4 2 2 3 4 3 4 3 3
8 7 6 5 6 6 5 5 6 6 6 7 9 9 7 4 1 3 5 4 2 1 1 1 1 2 3 2 3 2 1 1 1 1 1 2 2 1 1 2 1 1 2 1 0 1 1 1 1 2 1 0 1 1 2 3 9 12 12 12 14 14 14 12 8 5 6 8 8 10 12 12 9 7 7 7 7 6 5 4 2 3 4 5 4 4 2
9 6 5 5 5 6 6 6 7 6 6 7 8 7 4 2 3 5 6 3 0 1 1 1 1 1 3 3 3 2 1 1 1 1 0 1 2 1 0 1 2 1 1 1 1 1 2 2 1 2 3 2 0 1 1 6 12 12 11 13 16 15 13 13 11 9 8 7 6 8 10 10 10 9 9 7 5 3 5 5 4 4 5 5 5 4 3
10 6 4 3 3 5 5 5 6 5 4 4 4 2 2 2 4 5 4 3 2 1 1 1 1 0 1 1 2 3 2 2 1 1 0 1 2 2 1 2 2 1 0 1 2 2 2 2 2 3 4 3 4 6 7 11 15 15 13 13 13 12 12 14 15 14 12 8 6 7 8 9 9 8 8 7 5 2 4 6 5 5 5 6 5 5 3
10 7 3 1 2 2 2 2 4 4 3 2 3 6 6 4 3 3 2 2 3 3 1 1 0 2 2 1 2 2 2 1 1 1 1 0 1 1 1 2 0 1 1 3 2 2 2 2 2 2 4 4 5 8 10 11 14 15 15 14 13 13 13 14 14 14 12 9 4 4 6 7 7 6 6 6 5 5 5 6 5 5 5 6 6 4 3
9 6 2 0 1 1 1 1 2 2 3 4 5 4 3 2 2 1 1 0 2 2 1 2 2 3 1 0 2 2 1 0 1 1 1 0 0 1 1 1 0 1 2 2 1 1 1 2 2 2 3 4 6 9 10 11 12 13 14 15 15 15 15 15 14 12 9 7 5 2 4 5 5 5 5 5 6 6 6 6 5 5 5 5 4 3 1
8 5 1 1 1 0 0 0 1 3 4 4 2 1 0 1 1 1 1 0 1 1 1 1 2 3 2 1 3 3 1 1 2 1 1 0 0 0 0 0 0 1 2 2 1 0 1 2 2 2 3 6 8 10 10 10 11 13 14 15 16 17 17 17 16 14 11 8 7 4 3 5 5 5 5 6 6 5 4 3 3 2 2 0 1 1 2
6 3 0 1 1 1 2 4 5 4 1 0 1 1 0 0 0 1 0 1 1 1 1 1 2 3 3 2 1 2 1 0 1 1 0 1 1 0 1 1 0 2 2 3 2 1 2 2 2 3 4 6 8 9 9 9 10 12 13 14 16 18 19 19 19 18 16 15 12 9 5 5 4 2 2 2 3 4 5 5 4 4 4 4 3 2 2
4 1 1 2 2 2 3 5 4 1 1 1 1 1 1 1 1 0 1 2 2 2 1 0 2 3 2 2 2 2 2 1 0 1 1 1 1 1 1 1 1 2 2 3 2 1 2 2 2 3 4 6 7 7 7 8 8 10 12 14 15 17 19 20 21 23 21 18 14 12 13 13 11 9 8 7 7 7 7 6 7 8 8 7 5 5 6
6 5 4 2 0 1 3 3 1 1 1 1 1 2 1 1 2 2 1 1 1 2 1 0 1 3 3 2 2 2 1 1 1 1 1 1 1 1 1 1 1 2 1 2 1 2 2 2 2 3 6 7 7 7 7 7 7 8 11 13 14 15 17 18 19 23 24 20 14 12 15 16 14 12 11 11 11 11 10 10 10 9 9 10 10 9 10
6 3 3 2 1 1 1 1 0 0 1 2 2 2 2 2 2 2 2 2 1 1 1 1 2 2 2 1 1 0 1 0 1 1 1 1 1 1 2 2 2 1 0 1 2 3 2 2 3 5 7 7 7 7 7 8 7 7 8 11 14 17 19 18 17 20 24 24 20 17 18 17 16 15 16 16 15 13 13 15 15 13 13 14 14 13 12
2 2 2 1 1 1 0 1 1 1 2 2 1 1 2 3 2 2 3 3 2 2 2 2 1 1 3 2 1 1 1 2 1 1 0 0 1 2 2 1 1 1 1 2 2 2 2 2 3 5 6 6 6 6 7 6 6 6 6 8 12 16 17 17 17 17 19 21 22 22 21 20 19 19 20 19 17 14 14 15 17 17 17 18 18 17 15
1 2 3 3 2 1 1 1 2 2 2 1 1 1 1 3 3 3 3 3 2 3 4 3 2 2 3 3 0 1 1 1 1 1 1 1 2 2 0 1 1 1 2 2 2 1 2 3 4 6 7 7 7 7 6 6 6 6 6 6 9 11 12 13 14 13 12 15 19 21 20 19 19 19 19 20 21 21 18 17 17 17 19 20 19 18 18
1 1 3 3 2 1 1 1 2 1 1 1 2 3 3 3 4 4 4 2 2 4 5 4 2 1 1 2 1 1 1 1 2 2 2 2 2 1 1 1 2 2 2 2 2 2 2 3 5 5 6 7 6 6 5 6 6 6 6 6 7 7 8 9 11 11 12 15 18 19 19 20 20 19 19 21 23 24 23 22 21 20 19 19 18 18 19
1 1 3 3 1 2 1 1 1 1 1 2 3 4 4 4 4 4 3 3 3 4 5 4 2 0 1 1 1 2 2 2 2 2 2 2 1 1 1 2 2 2 2 2 2 1 2 4 5 5 6 6 5 5 5 6 6 7 7 6 6 7 7 7 7 9 12 15 15 16 17 20 21 21 20 21 22 24 25 26 25 24 22 20 19 19 20
1 1 2 2 1 0 0 1 1 1 2 3 4 4 3 2 3 4 4 3 3 4 4 3 1 1 2 2 2 2 2 2 2 2 2 1 1 2 2 2 1 1 2 2 1 2 3 4 5 5 6 6 5 4 4 5 6 7 7 6 5 6 7 6 6 8 11 13 12 12 14 17 19 20 19 19 20 23 26 27 27 27 25 23 21 21 21
2 2 1 1 1 1 1 1 2 2 4 4 3 3 3 3 4 5 5 4 4 4 3 1 1 2 1 2 2 2 2 2 1 1 2 2 2 2 2 2 1 1 1 1 2 2 3 4 5 5 5 5 6 5 5 4 5 6 6 6 6 6 7 7 8 9 10 10 10 11 12 14 15 16 17 16 16 19 23 25 25 26 26 24 23 22 22
3 2 1 1 2 1 1 2 3 3 5 5 4 3 3 4 4 5 4 4 4 4 3 2 2 2 1 1 2 2 1 1 2 2 2 2 2 1 1 2 2 1 2 2 3 3 4 4 4 4 5 5 6 6 5 4 4 5 6 8 9 9 8 8 9 10 10 10 10 10 11 12 12 13 13 13 14 17 20 22 23 23 23 23 23 23 22
2 2 1 1 2 2 2 1 1 1 3 3 4 3 2 2 3 4 4 4 4 4 4 3 1 2 3 3 2 1 1 1 2 2 2 1 1 1 1 2 2 2 2 3 4 4 4 3 3 3 5 5 5 5 5 6 6 7 8 9 10 11 11 11 10 10 11 12 12 11 10 10 11 12 12 14 15 16 16 17 19 20 21 21 21 21 21
1 1 0 1 1 3 3 3 2 2 3 3 4 3 1 1 4 4 2 4 4 4 3 2 1 3 3 1 0 1 1 2 2 2 2 1 1 0 1 2 3 2 2 3 4 3 3 3 3 3 3 4 5 6 7 8 9 9 10 9 9 10 11 12 12 12 13 13 14 14 12 10 10 11 13 14 13 11 9 11 15 18 19 20 20 21 21
Wind_Direction
336 336 337 339 341 341 341 341 343 348 351 351 351 348 342 26 308 308 340 354 359 35 69 7 4 47 343 312 303 317 356 17 3 3 6 9 5 352 9 40 32 23 353 334 349 0 30 144 113 58 353 340 328 337 357 356 347 346 330 311 324 324 322 318 304 292 277 270 265 266 269 264 271 278 252 218 213 201 200 205 180 184 213 193 208 260 266
335 336 336 337 338 338 339 340 342 348 351 349 349 352 327 310 282 293 348 10 35 76 47 354 347 354 339 332 349 347 359 34 25 12 15 17 354 342 10 25 29 5 355 8 359 359 31 172 163 97 353 314 346 345 355 357 351 338 320 323 335 329 337 348 336 328 296 277 259 278 322 7 346 300 290 271 239 212 199 132 155 208 208 182 196 241 253
335 335 335 336 336 335 338 340 341 346 349 345 349 353 270 312 283 246 347 19 45 72 45 17 333 341 346 337 360 1 2 39 36 16 28 28 357 339 356 2 10 5 7 15 351 4 43 34 172 152 243 262 12 357 358 355 344 319 311 324 333 301 292 341 333 302 264 252 245 290 330 337 314 293 291 299 281 233 208 146 170 223 206 176 201 236 259
336 335 334 334 335 334 336 339 339 344 347 345 344 334 266 344 3 302 334 17 43 62 50 40 359 340 352 333 349 8 359 15 24 18 37 21 359 343 326 354 13 15 15 10 334 339 29 11 328 203 254 314 197 67 19 344 331 333 330 334 336 278 260 249 224 241 253 264 285 289 287 287 287 291 292 296 296 275 236 182 188 201 174 191 218 229 263
335 335 334 335 335 332 334 337 338 341 345 344 341 325 227 70 42 346 332 344 17 31 26 28 15 334 333 313 320 4 5 356 360 16 30 7 354 336 339 22 25 2 360 360 306 312 346 343 310 299 324 324 262 123 60 330 333 360 347 331 324 285 285 275 244 249 259 268 281 283 280 273 269 277 284 282 282 281 254 224 202 155 154 225 241 195 222
332 334 334 335 335 331 334 338 336 337 342 344 345 341 187 38 90 95 260 287 355 359 330 344 340 318 315 295 309 1 12 9 3 2 356 357 5 5 352 9 7 342 341 345 292 312 326 290 289 317 312 309 306 3 83 318 348 10 344 317 310 272 269 279 274 279 280 277 278 275 266 260 261 264 269 273 273 267 251 240 206 158 180 226 222 181 209
333 334 333 334 334 331 332 336 333 336 340 341 346 17 6 22 76 7 313 240 292 286 294 310 315 318 323 327 10 13 7 4 0 348 337 338 0 53 1 332 335 326 326 334 298 301 309 283 285 311 304 309 312 302 251 309 351 351 323 308 296 262 256 285 297 301 294 286 279 267 260 273 284 276 267 268 267 256 249 244 208 179 193 209 186 191 218
334 334 334 334 333 328 328 331 332 334 338 340 348 41 340 41 83 349 327 270 269 274 287 304 318 328 327 327 357 359 348 354 344 309 287 303 319 36 350 314 316 315 313 313 285 268 258 267 276 283 298 302 290 242 195 205 254 292 305 307 290 271 278 311 325 316 299 293 289 285 296 303 289 279 286 294 276 246 232 229 211 192 187 177 170 202 234
334 334 334 332 330 327 327 331 334 332 332 338 350 280 267 214 128 111 320 304 305 300 303 321 333 331 339 5 10 352 340 345 332 299 227 218 263 327 325 312 309 308 307 297 278 267 258 271 275 270 269 269 270 269 206 182 212 262 252 262 286 287 291 323 359 332 291 298 329 321 318 312 282 282 327 332 322 247 189 149 82 223 191 158 149 203 244
333 334 333 330 330 330 328 327 331 330 326 324 295 243 215 196 168 121 140 303 314 301 299 317 341 336 346 351 352 337 320 322 328 319 299 239 262 299 307 303 302 304 299 285 270 269 273 276 274 269 265 261 264 266 242 220 227 243 222 210 252 269 277 313 12 311 279 302 327 318 317 314 273 293 357 345 350 25 51 56 32 358 210 160 185 225 264
333 333 332 329 328 327 322 320 323 323 317 309 280 252 249 234 204 129 162 272 284 277 298 305 317 323 329 335 336 315 305 311 309 277 308 302 294 297 295 289 282 272 268 263 265 273 273 271 270 267 264 261 259 257 252 244 234 226 221 211 237 255 265 289 197 256 287 309 316 309 297 170 238 149 30 354 354 25 42 56 33 9 15 33 244 259 302
332 332 331 328 326 323 319 320 323 315 307 303 284 266 272 262 219 158 175 246 280 291 268 267 277 295 305 305 301 296 298 305 295 261 259 280 291 298 298 290 282 273 271 276 288 293 285 277 275 272 265 261 259 254 249 244 233 221 216 210 221 249 260 260 213 225 284 308 321 313 157 190 282 340 27 355 347 12 22 53 40 23 13 359 340 323 316
331 332 330 327 325 322 321 323 322 309 303 301 281 266 278 271 233 166 147 214 259 262 257 278 279 279 285 283 280 287 292 295 293 276 257 268 286 295 299 299 299 297 295 297 300 301 300 294 292 287 277 271 265 252 239 233 231 228 221 214 215 231 250 259 234 241 280 308 334 222 212 301 312 304 352 354 355 355 353 20 29 19 9 356 345 329 319
330 330 329 326 324 322 319 316 309 298 294 294 282 273 278 264 230 171 121 203 244 253 258 288 284 262 267 276 282 301 305 298 294 277 258 271 284 288 292 294 295 297 301 307 309 316 324 320 333 321 299 298 304 280 236 225 227 226 224 219 210 211 229 255 239 226 241 287 303 280 284 313 321 314 345 342 330 330 337 355 12 8 6 356 343 331 329
329 329 328 327 324 320 316 311 306 299 291 286 281 276 275 262 237 205 149 169 254 277 244 234 233 240 271 291 293 301 303 297 293 284 277 270 268 278 287 293 298 303 312 325 321 356 30 355 351 332 314 342 354 329 339 297 242 232 228 220 208 207 213 215 218 222 249 339 322 316 300 282 265 338 324 302 262 283 295 261 344 2 0 354 347 341 338
329 329 329 328 325 320 318 316 312 309 299 284 278 274 273 267 247 224 184 129 212 260 238 214 213 235 279 284 277 269 269 279 301 307 300 270 268 290 297 297 302 312 341 21 340 19 35 20 302 288 282 316 326 307 313 315 287 277 251 214 201 201 208 217 243 261 296 320 300 292 266 254 311 331 318 307 304 300 281 207 41 359 352 351 350 347 349
331 331 330 330 326 322 321 319 313 308 301 288 278 274 275 277 254 225 199 144 201 236 265 238 225 243 279 278 273 252 234 251 279 296 301 298 299 305 306 306 312 324 9 11 6 44 27 348 320 303 275 291 317 306 302 311 303 328 345 207 193 193 202 219 230 239 251 258 260 264 251 266 317 325 316 310 311 309 297 102 40 350 346 348 348 350 357
332 334 332 330 328 324 322 317 308 302 298 292 283 272 272 280 266 230 204 163 221 241 260 245 233 236 240 246 263 262 254 274 269 256 279 282 276 297 312 328 328 330 3 11 20 50 13 319 308 333 290 283 321 313 304 325 328 332 348 316 191 178 191 224 225 233 244 241 250 276 254 270 317 319 314 309 306 315 60 64 5 340 343 346 350 356 357
334 336 334 331 328 326 322 316 311 308 302 296 287 272 268 276 265 233 208 168 213 240 255 234 216 219 216 218 252 258 243 257 260 264 280 275 246 315 317 339 339 318 351 21 22 56 14 317 261 284 283 276 324 321 309 323 336 327 322 313 167 145 161 232 225 230 238 223 242 279 260 324 333 322 317 321 330 42 40 359 340 341 343 343 351 0 360
335 336 334 332 331 329 322 315 312 313 308 300 293 280 276 281 271 241 223 212 220 255 258 245 234 236 233 229 247 256 252 248 238 230 256 262 34 355 317 309 349 319 327 23 7 11 24 307 303 298 293 285 293 313 321 322 325 319 316 330 59 137 204 235 220 223 232 217 231 278 268 346 346 334 330 2 30 17 329 337 341 344 348 348 352 360 3
333 335 334 333 333 330 323 317 314 312 309 304 298 289 282 283 282 262 242 231 231 288 269 243 236 240 240 235 237 240 240 237 230 226 255 257 114 19 293 245 46 325 308 123 72 265 222 264 294 292 299 290 279 325 332 322 313 307 303 317 26 55 41 308 308 331 2 193 229 326 302 337 357 355 17 59 49 3 344 357 353 350 355 355 352 354 358
332 332 333 334 333 327 319 314 312 307 304 303 297 285 279 276 281 283 256 235 228 248 266 267 269 267 263 262 258 252 248 248 247 248 257 268 231 215 239 238 201 229 250 171 172 230 237 221 271 291 294 290 283 314 315 301 302 340 331 336 17 9 357 312 288 300 303 274 273 331 349 4 22 29 65 75 57 27 10 8 4 1 358 353 351 348 350
331 333 335 334 330 326 316 307 303 298 295 298 290 275 274 278 282 291 268 240 233 253 263 267 277 279 273 273 273 265 256 254 253 247 237 230 234 224 218 220 225 228 238 217 194 204 201 187 191 241 261 274 290 303 300 281 296 346 346 343 321 325 333 327 298 296 288 264 265 2 22 73 65 42 53 69 57 34 11 4 8 8 357 349 347 342 344
332 334 334 332 327 323 313 300 294 289 285 283 280 272 272 275 278 281 267 243 240 272 266 257 260 266 272 284 291 279 257 252 252 247 233 220 213 233 214 200 198 215 245 232 205 153 157 207 207 212 244 264 280 294 295 291 347 0 354 337 311 337 359 358 325 308 305 300 356 349 341 152 121 61 54 74 70 57 22 358 3 12 4 349 339 337 342
332 331 331 331 327 322 312 297 287 285 278 266 261 262 261 262 263 254 242 248 261 276 288 281 252 261 290 304 298 284 272 264 258 244 225 213 208 216 226 195 187 206 281 261 183 134 218 257 254 241 257 259 236 242 277 291 353 359 342 319 319 349 358 351 325 309 306 301 314 320 309 208 136 107 86 94 88 87 73 7 3 21 16 349 335 337 344
332 331 331 332 329 324 313 298 284 278 267 248 241 244 247 256 257 230 220 246 260 245 277 294 272 287 322 323 308 302 293 268 248 235 222 215 215 222 230 226 207 233 277 262 168 151 233 272 276 237 240 261 241 243 269 287 319 318 296 284 296 312 321 322 314 307 299 290 304 325 312 237 117 83 15 17 105 104 81 20 3 22 24 355 335 335 341
336 336 338 339 338 335 324 308 286 265 247 231 227 229 237 249 249 231 226 238 262 305 281 272 284 310 320 318 320 333 326 262 233 230 225 220 220 223 227 235 238 223 220 217 194 133 190 262 272 241 236 304 339 281 256 276 298 283 271 275 282 284 295 309 310 299 281 267 298 2 337 292 297 348 352 0 94 116 101 35 354 6 25 359 325 318 328
340 343 346 348 354 358 349 341 109 150 168 181 201 221 232 238 234 233 238 239 236 270 284 269 290 306 312 312 326 345 351 317 243 255 257 231 217 212 213 222 226 201 189 205 211 197 212 239 253 249 261 302 314 278 254 288 296 264 262 261 240 265 301 312 299 282 272 270 284 306 296 280 278 280 333 360 21 117 128 99 28 335 338 356 324 305 314
342 345 345 350 8 24 35 94 116 121 126 133 163 250 258 246 226 226 236 235 233 247 294 300 289 296 310 308 311 336 6 22 23 0 3 20 168 177 183 186 182 175 173 167 189 250 263 253 254 273 289 296 291 284 297 337 282 266 269 288 291 290 295 292 285 280 277 278 287 294 284 278 281 290 333 357 359 358 159 139 114 327 327 3 351 314 304
342 341 330 335 18 66 123 142 135 123 121 120 81 333 322 283 226 215 219 227 233 244 318 322 288 300 313 296 297 331 6 26 51 55 45 48 69 96 119 135 144 156 141 109 117 249 273 296 301 293 306 317 305 299 317 321 272 265 297 323 314 303 294 286 278 273 274 277 284 287 283 283 290 299 300 300 317 317 255 163 156 196 332 21 1 329 315
340 334 310 289 325 133 160 171 183 179 160 149 122 71 33 5 267 225 210 215 222 227 8 265 269 306 317 282 265 326 352 11 56 67 53 49 50 48 57 73 49 13 107 126 157 224 230 303 296 253 301 334 333 303 305 308 278 284 315 320 309 297 287 279 270 262 265 271 274 273 273 274 276 283 288 273 244 243 228 194 193 201 171 104 29 332 316
340 331 301 267 246 216 193 197 210 220 235 250 254 242 253 289 302 289 212 189 197 196 130 291 280 323 322 291 275 320 351 5 41 58 43 41 44 36 32 34 14 308 272 119 40 326 191 222 268 270 299 330 330 267 266 284 284 301 310 311 303 293 285 280 272 261 257 259 257 256 261 259 250 243 244 247 246 244 243 243 249 241 211 177 182 258 312
338 328 305 276 251 232 222 225 227 238 259 271 278 277 267 268 287 262 190 176 186 194 168 100 339 299 283 292 321 346 2 359 350 30 25 351 320 21 14 356 325 316 337 29 70 288 249 196 260 291 305 36 13 339 215 255 294 303 306 308 310 312 308 298 285 265 252 247 238 236 246 254 251 235 220 210 210 230 255 267 262 267 274 256 227 234 295
336 322 309 287 252 232 229 231 236 249 264 272 282 284 272 256 228 177 179 177 177 205 163 102 62 302 295 322 342 344 22 43 7 26 10 326 339 42 333 301 318 356 349 15 99 309 318 313 311 324 337 55 89 143 183 288 310 313 318 328 334 334 329 323 316 291 268 258 242 236 243 252 261 260 233 209 203 218 243 261 272 277 284 286 276 262 238
345 329 312 296 257 231 231 239 246 255 263 267 274 279 268 228 163 162 176 190 101 31 331 61 81 322 326 341 323 306 356 73 358 331 202 310 337 10 24 332 350 352 317 339 11 358 342 329 336 335 312 290 81 90 336 329 332 335 344 351 350 345 338 333 330 321 305 282 252 248 250 245 243 248 249 244 240 256 273 280 279 263 257 265 276 274 246
349 345 328 303 248 228 237 246 243 243 256 269 260 218 160 148 154 164 189 246 264 218 256 6 75 201 267 283 288 306 355 27 349 322 72 19 336 332 65 57 3 300 291 11 352 335 330 328 349 343 328 352 29 9 345 343 346 348 352 356 355 350 340 330 323 319 314 296 256 243 248 244 237 236 245 254 252 237 253 264 260 249 248 257 269 275 268
347 351 344 296 223 222 250 248 233 237 252 236 157 137 130 128 144 170 227 272 242 213 182 62 256 237 223 232 267 298 356 29 357 332 335 339 292 314 36 65 319 273 1 17 351 325 333 357 37 6 343 4 19 358 347 352 353 350 351 354 354 355 350 338 329 323 319 312 283 227 226 239 238 219 218 238 229 193 196 221 232 240 253 261 267 273 275
341 341 332 287 94 62 317 273 254 233 201 164 139 127 115 103 121 218 270 243 212 212 138 101 258 261 224 214 272 272 280 24 46 31 336 295 333 339 9 56 220 310 1 355 314 271 344 10 41 22 335 346 4 359 355 357 355 352 354 354 352 353 352 347 341 335 326 320 311 257 212 226 236 211 194 207 210 196 197 211 220 234 253 262 269 278 299
336 330 329 100 94 85 295 85 132 155 167 160 133 98 47 60 46 310 279 164 177 224 136 140 248 234 187 218 279 276 210 55 6 356 321 299 15 4 330 318 6 46 24 345 310 80 35 2 10 11 350 353 1 359 354 354 357 358 358 355 353 354 354 354 353 351 352 356 347 318 221 196 208 209 200 200 196 182 170 171 178 195 211 195 28 1 347
329 316 20 97 100 120 128 136 145 154 166 5 9 28 74 60 305 239 262 2 342 232 181 201 247 228 184 177 284 300 284 294 310 293 256 266 250 158 82 351 19 65 29 330 309 60 58 14 354 1 1 0 357 353 352 355 359 0 356 354 355 356 357 1 3 1 8 21 23 21 49 85 95 102 119 137 129 110 98 91 87 83 85 83 72 46 24
320 308 111 96 82 93 129 150 169 206 348 22 29 22 11 325 276 208 61 13 322 278 227 187 306 291 258 158 165 230 274 292 230 149 119 306 289 99 75 345 15 75 34 307 296 52 54 35 5 353 355 356 349 343 346 352 356 359 358 358 359 359 0 5 8 9 13 21 24 30 45 53 54 58 62 62 63 69 71 67 63 62 64 68 68 64 63
300 283 266 262 248 136 149 162 191 266 31 54 7 333 332 333 336 352 12 3 289 288 280 235 251 263 254 200 183 219 265 347 46 89 73 310 278 107 87 346 18 63 22 299 333 39 26 10 10 352 346 349 348 346 349 350 348 352 357 359 1 3 4 7 9 12 16 19 17 23 37 45 45 49 58 63 64 64 61 60 59 55 55 59 63 64 68
314 279 244 240 198 139 158 210 259 104 72 50 33 3 343 342 348 334 303 284 302 308 273 275 304 294 269 234 198 271 310 271 200 154 120 259 271 65 59 24 14 48 34 331 41 39 2 355 5 352 343 347 353 356 355 350 344 346 355 1 5 7 9 10 11 13 17 19 18 20 29 35 38 43 51 59 65 65 60 57 57 55 56 59 57 54 60
12 94 115 101 77 102 104 307 324 65 41 19 56 52 349 327 317 312 303 294 294 285 261 255 285 301 277 258 140 107 257 241 201 157 8 333 13 41 52 2 290 306 46 43 34 28 12 357 349 342 343 350 357 357 355 351 348 348 351 359 8 12 14 14 14 15 15 17 18 21 25 28 30 35 40 45 51 57 58 55 53 53 57 59 55 48 49
36 34 38 29 1 1 52 358 346 28 32 345 219 173 245 277 277 280 277 257 258 291 299 283 206 198 247 269 309 103 243 239 84 21 347 40 43 22 347 231 278 14 57 40 359 14 29 354 333 335 341 342 344 348 350 347 348 348 347 351 4 14 20 19 17 16 15 15 16 19 22 23 25 28 30 33 39 46 48 48 48 51 56 58 55 48 47
80 65 83 75 352 331 83 55 357 356 339 267 221 202 225 258 262 257 257 266 288 302 304 296 256 197 255 292 345 24 358 51 61 16 18 71 64 325 283 68 31 25 51 35 1 2 352 323 318 326 330 328 330 341 347 347 347 349 353 357 0 7 18 25 23 19 16 18 20 21 21 21 22 24 25 27 32 38 42 43 46 49 54 56 54 49 48
48 41 87 90 352 345 51 84 262 252 242 243 230 225 241 267 278 269 266 273 282 292 299 296 276 261 5 13 31 5 351 31 57 12 10 66 74 301 341 50 40 19 38 32 6 330 300 305 312 319 321 324 329 337 347 356 355 350 355 2 358 351 360 19 30 26 21 21 24 25 25 23 21 21 22 25 28 32 36 39 40 42 46 50 52 51 50
79 43 83 115 188 306 19 292 296 314 288 267 265 268 279 317 331 313 293 281 290 314 324 329 358 26 2 12 57 41 1 21 45 3 345 42 57 352 2 30 33 32 40 22 309 274 281 297 305 312 323 334 342 343 353 5 358 347 345 349 351 350 354 4 22 32 32 28 25 27 31 31 26 22 22 24 26 29 34 36 35 36 37 41 45 48 50
88 82 92 114 161 216 206 136 63 358 312 295 306 331 350 357 330 303 297 308 321 316 303 299 87 72 358 345 47 50 12 12 44 12 359 28 34 1 351 5 1 10 22 317 270 272 284 292 302 318 333 343 351 354 357 1 353 341 338 346 359 9 9 7 15 29 38 40 38 34 35 38 34 27 23 23 25 31 36 39 39 38 36 36 38 42 44
59 73 89 73 60 342 314 56 52 345 315 318 329 334 343 341 315 300 310 331 334 336 351 14 44 53 21 14 44 44 12 10 63 57 38 32 16 343 356 13 347 313 306 300 291 289 293 298 310 331 342 349 355 353 349 348 346 339 340 354 11 20 17 12 17 25 29 36 43 43 42 45 44 35 26 23 28 35 40 42 43 43 41 39 39 40 39
28 49 83 126 139 163 172 129 130 259 294 307 290 271 285 325 296 290 317 352 7 18 19 10 13 36 33 30 34 19 358 37 61 59 52 34 11 4 11 347 310 287 294 301 292 287 297 318 338 348 347 348 350 348 349 360 5 358 353 3 20 27 21 13 13 17 21 26 32 35 37 45 52 51 44 37 35 37 39 41 44 47 47 44 43 44 43
68 85 24 296 200 156 139 130 159 211 245 260 248 226 201 277 274 278 337 40 50 37 11 1 59 64 51 31 345 5 21 47 57 50 42 29 23 60 200 243 254 243 241 273 282 290 314 338 348 352 351 350 352 357 7 15 14 9 8 13 23 31 29 23 19 18 21 24 25 25 27 36 50 59 58 49 39 33 31 34 41 48 51 48 46 48 49